Stations météo

réclame
Mon MeteoGroup
Le Touquet, France (7003): Température de l'air & dewpoint: 12.01.2019 12:00:00 - 18.01.2019 12:00:00 (CET)Le Touquet, France (7003): Température de l'air 5cm: 12.01.2019 12:00:00 - 18.01.2019 12:00:00 (CET)Le Touquet, France (7003): Vitesse du vent & gusts: 12.01.2019 12:00:00 - 18.01.2019 12:00:00 (CET)Le Touquet, France (7003): Direction du vent: 12.01.2019 12:00:00 - 18.01.2019 12:00:00 (CET)Le Touquet, France (7003): reduced air pressure: 12.01.2019 12:00:00 - 18.01.2019 12:00:00 (CET)Le Touquet, France (7003): visibility: 12.01.2019 12:00:00 - 18.01.2019 12:00:00 (CET)Le Touquet, France (7003): Ensoleillement: 12.01.2019 12:00:00 - 18.01.2019 12:00:00 (CET)Le Touquet, France (7003): Quantités de précipitations: 12.01.2019 12:00:00 - 18.01.2019 12:00:00 (CET)
Date & Time tt [°C] td [°C] tt 5cm [°C] ff [km/h] ff [knt] fx [km/h] fx [knt] dd ppp [hPa] vv [km] sd [min] rr [mm]
18.01.2019 12:00:00 2,6 1,0 2,6 10 5 13 7 ESE 1019,8 18 40 0,0
18.01.2019 11:00:00 1,0 -0,2 -0,6 10 5 13 7 SE 1020,1 15 16 0,0
18.01.2019 10:00:00 -0,3 -1,1 -2,8 7 4 9 5 SE 1019,7 14 6 0,0
18.01.2019 09:00:00 -1,0 -1,8 -3,4 5 3 7 4 SSE 1019,6 13 0 0,0
18.01.2019 08:00:00 -1,4 -2,2 -3,4 6 4 8 5 SE 1019,5 13 0 0,0
18.01.2019 07:00:00 -0,7 -1,7 -2,3 6 3 12 7 SE 1019,5 15 0 0,0
18.01.2019 06:00:00 -0,8 -1,8 -2,3 6 3 8 4 SE 1019,5 19 0 0,0
18.01.2019 05:00:00 -0,3 -1,4 -2,4 4 2 8 4 SE 1019,5 20 0 0,0
18.01.2019 04:00:00 -0,4 -1,7 -2,3 0 0 5 3 N 1019,5 32 0 0,0
18.01.2019 03:00:00 -0,3 -1,6 -3,0 4 2 9 5 SE 1019,5 36 0 0,0
18.01.2019 02:00:00 -0,7 -2,4 -3,3 4 2 5 3 E 1019,5 36 0 0,0
18.01.2019 01:00:00 0,4 -2,0 -3,0 2 1 7 4 NNW 1019,2 59 0 0,0
18.01.2019 00:00:00 0,4 -2,2 -2,0 10 6 19 11 N 1018,6 53 0 0,0
17.01.2019 23:00:00 1,6 -1,5 -0,3 14 8 27 15 N 1018,1 60 0 0,0
17.01.2019 22:00:00 3,1 -0,7 1,8 23 13 43 23 N 1018,0 56 0 0,0
17.01.2019 21:00:00 3,7 -0,7 1,7 32 17 45 24 NNW 1017,5 54 0 0,0
17.01.2019 20:00:00 3,2 -1,4 1,7 22 12 40 22 N 1016,7 59 0 0,0
17.01.2019 19:00:00 3,8 -1,2 2,4 29 16 44 24 NNW 1016,3 60 0 0,0
17.01.2019 18:00:00 3,9 -1,3 2,9 31 17 45 24 NNW 1015,4 60 0 0,0
17.01.2019 17:00:00 4,3 -1,1 3,1 31 17 47 26 NNW 1014,4 57 42 0,0
17.01.2019 16:00:00 4,3 -1,5 3,6 31 17 47 25 NNW 1013,3 34 55 0,0
17.01.2019 15:00:00 4,8 -0,6 5,5 29 16 48 26 NW 1012,4 37 60 0,0
17.01.2019 14:00:00 4,5 0,6 3,2 32 17 48 26 NNW 1011,6 60 12 0,0
17.01.2019 13:00:00 4,3 1,5 1,9 35 19 53 28 NNW 1010,8 46 1 1,6
17.01.2019 12:00:00 5,3 2,1 5,1 31 17 46 25 NNW 1009,9 14 17 0,0
17.01.2019 11:00:00 5,3 1,9 5,1 31 17 47 25 NW 1009,2 36 21 0,0
17.01.2019 10:00:00 5,2 2,4 4,7 36 19 51 28 NNW 1007,8 36 1 0,0
17.01.2019 09:00:00 5,8 3,6 5,0 35 19 50 27 NNW 1006,0 31 0 0,0
17.01.2019 08:00:00 5,8 4,0 5,2 30 16 40 22 NW 1004,3 38 0 0,0
17.01.2019 07:00:00 6,4 4,9 4,9 21 12 38 20 NW 1003,2 51 0 1,1
17.01.2019 06:00:00 5,7 4,8 4,2 7 4 16 9 S 1002,6 51 0 0,2
17.01.2019 05:00:00 4,7 3,7 3,4 7 4 30 16 SSE 1003,4 41 0 2,0
17.01.2019 04:00:00 5,1 3,6 3,9 9 5 32 17 S 1003,9 56 0 2,0
17.01.2019 03:00:00 6,5 4,2 3,3 2 1 11 6 SW 1004,1 10 0 0,0
17.01.2019 02:00:00 7,7 4,8 5,8 6 3 18 10 W 1004,5 60 0 0,0
17.01.2019 01:00:00 7,6 4,7 5,8 10 6 23 12 W 1004,8 60 0 0,0
17.01.2019 00:00:00 7,5 4,3 6,0 15 8 26 14 W 1005,1 60 0 0,0
16.01.2019 23:00:00 7,2 5,2 5,9 15 8 26 14 W 1004,9 55 0 0,0
16.01.2019 22:00:00 6,7 5,6 5,8 10 5 48 26 WNW 1004,5 13 0 0,0
16.01.2019 21:00:00 7,5 6,6 6,9 24 13 51 28 SW 1003,5 3,4 0 0,2
16.01.2019 20:00:00 7,7 6,2 6,7 24 13 45 24 SW 1003,7 8 0 0,0
16.01.2019 19:00:00 7,3 6,1 6,5 21 11 47 26 SW 1004,2 6 0 0,4
16.01.2019 18:00:00 7,7 5,2 6,5 20 11 39 21 SSW 1004,7 12 0 0,0
16.01.2019 17:00:00 7,6 4,5 7,0 16 9 36 20 SSW 1005,2 19 0 0,0
16.01.2019 16:00:00 7,3 4,3 6,8 16 8 35 19 SSW 1006,0 19 0 0,0
16.01.2019 15:00:00 7,2 3,8 7,1 19 10 36 20 SSW 1006,5 20 0 0,0
16.01.2019 14:00:00 7,1 3,9 7,4 19 10 38 21 SSW 1007,5 18 0 0,0
16.01.2019 13:00:00 7,2 4,0 7,4 18 10 34 18 SSW 1008,5 19 0 0,0
16.01.2019 12:00:00 6,8 3,6 6,9 20 11 39 21 SSW 1009,7 19 0 0,0
16.01.2019 11:00:00 6,7 3,5 6,2 17 9 42 23 SSW 1010,7 19 0 0,0
16.01.2019 10:00:00 6,4 3,5 6,1 21 12 40 21 SSW 1011,2 16 0 0,0
16.01.2019 09:00:00 6,4 3,9 6,1 20 11 35 19 SW 1011,6 15 0 0,0
16.01.2019 08:00:00 6,7 4,0 6,3 18 10 40 22 SW 1012,0 19 0 0,0
16.01.2019 07:00:00 6,8 4,1 6,4 22 12 40 22 SW 1012,4 17 0 0,0
16.01.2019 06:00:00 6,9 4,4 6,5 20 11 36 20 SW 1013,1 18 0 0,0
16.01.2019 05:00:00 7,1 4,7 6,6 18 10 36 19 SW 1014,0 19 0 0,0
16.01.2019 04:00:00 7,2 4,8 6,7 18 10 36 20 SW 1014,8 20 0 0,0
16.01.2019 03:00:00 7,3 5,1 6,7 16 9 36 20 SW 1015,5 32 0 0,0
16.01.2019 02:00:00 7,1 5,4 6,7 22 12 36 20 SW 1016,1 18 0 0,0
16.01.2019 01:00:00 7,4 5,9 6,9 21 11 43 23 SW 1016,9 16 0 0,0
16.01.2019 00:00:00 7,6 6,7 7,1 18 10 35 19 SW 1017,4 9 0 0,0
15.01.2019 23:00:00 7,9 7,0 7,4 19 11 39 21 SW 1017,9 15 0 0,0
15.01.2019 22:00:00 7,8 7,0 7,3 19 10 35 19 SW 1018,4 15 0 0,2
15.01.2019 21:00:00 8,0 7,4 7,1 14 7 27 14 SW 1018,7 13 0 0,0
15.01.2019 20:00:00 7,7 7,1 7,2 15 8 27 14 W 1019,2 7 0 0,4
15.01.2019 19:00:00 7,9 7,1 7,3 16 9 34 18 W 1019,5 2,4 0 1,2
15.01.2019 18:00:00 8,1 7,0 7,6 14 7 24 13 WSW 1020,0 1,6 0 0,2
15.01.2019 17:00:00 8,4 6,7 8,0 15 8 24 13 WSW 1020,2 12 0 0,0
15.01.2019 16:00:00 8,5 6,1 8,6 11 6 20 11 W 1020,4 58 0 0,0
15.01.2019 15:00:00 8,1 6,6 8,3 12 7 27 15 W 1020,7 60 6 0,0
15.01.2019 14:00:00 8,8 5,4 9,3 15 8 26 14 W 1021,2 17 14 0,0
15.01.2019 13:00:00 8,5 4,5 8,7 16 8 31 17 WNW 1021,8 60 0 0,0
15.01.2019 12:00:00 8,5 3,9 7,9 17 9 41 22 WNW 1022,4 60 0 0,0
15.01.2019 11:00:00 8,5 4,3 7,6 14 8 28 15 W 1022,4 60 0 0,0
15.01.2019 10:00:00 8,4 4,0 7,1 13 7 26 14 WNW 1022,7 59 0 0,0
15.01.2019 09:00:00 8,1 3,2 6,3 16 8 31 17 W 1022,5 59 0 0,0
15.01.2019 08:00:00 7,5 3,7 4,9 12 7 22 12 W 1022,4 53 0 0,0
15.01.2019 07:00:00 7,3 3,7 3,9 11 6 21 11 WNW 1022,6 57 0 0,0
15.01.2019 06:00:00 7,2 3,2 3,9 9 5 17 9 WNW 1022,6 59 0 0,0
15.01.2019 05:00:00 7,7 3,0 4,9 12 7 23 13 WNW 1023,0 57 0 0,0
15.01.2019 04:00:00 8,0 3,5 6,2 11 6 20 11 WNW 1023,5 57 0 0,0
15.01.2019 03:00:00 8,2 3,4 6,7 10 6 19 10 WNW 1023,6 60 0 0,0
15.01.2019 02:00:00 8,3 3,7 7,0 11 6 17 9 WNW 1023,5 51 0 0,0
15.01.2019 01:00:00 8,2 4,4 6,9 8 5 18 10 WNW 1023,4 47 0 0,0
15.01.2019 00:00:00 8,1 4,5 6,0 11 6 20 11 NW 1023,5 39 0 0,0
14.01.2019 23:00:00 8,0 4,2 6,4 15 8 23 12 NW 1023,4 41 0 0,0
14.01.2019 22:00:00 8,1 4,3 4,0 13 7 23 12 WNW 1023,2 20 0 0,0
14.01.2019 21:00:00 6,1 4,3 3,6 0 0 6 3 N 1023,1 14 0 0,0
14.01.2019 20:00:00 6,7 4,5 5,2 0 0 8 4 N 1023,2 11 0 0,0
14.01.2019 19:00:00 7,0 4,3 5,6 0 0 6 3 N 1023,1 37 0 0,0
14.01.2019 18:00:00 7,4 4,2 5,7 3 1 11 6 NNW 1022,9 49 0 0,0
14.01.2019 17:00:00 7,4 4,7 6,6 7 4 12 6 N 1022,4 20 0 0,0
14.01.2019 16:00:00 7,9 4,8 7,5 10 5 22 12 NNW 1021,7 13 0 0,0
14.01.2019 15:00:00 8,2 4,4 8,3 18 10 31 17 NNW 1021,3 52 0 0,0
14.01.2019 14:00:00 8,6 5,0 8,8 25 13 36 19 NNW 1021,1 42 14 0,0
14.01.2019 13:00:00 8,9 5,3 9,0 27 15 39 21 NNW 1020,8 20 60 0,0
14.01.2019 12:00:00 8,4 5,0 8,1 31 17 40 22 NNW 1020,3 48 7 0,0
14.01.2019 11:00:00 8,2 5,0 7,9 30 16 41 22 NNW 1019,7 20 0 0,0
14.01.2019 10:00:00 8,2 4,4 7,4 26 14 46 25 NW 1019,1 20 0 0,0
14.01.2019 09:00:00 7,9 4,5 7,3 30 16 45 24 NNW 1018,3 19 0 0,0
14.01.2019 08:00:00 8,2 4,0 7,4 31 17 49 26 NW 1017,7 19 0 0,0
14.01.2019 07:00:00 8,4 4,0 7,3 31 17 48 26 NW 1017,1 20 0 0,0
14.01.2019 06:00:00 8,1 4,1 6,5 31 17 52 28 NW 1016,6 19 0 0,0
14.01.2019 05:00:00 8,1 3,7 6,4 34 18 46 25 NW 1016,1 20 0 0,0
14.01.2019 04:00:00 8,2 3,6 7,2 40 22 57 31 NNW 1015,7 19 0 0,0
14.01.2019 03:00:00 8,8 3,6 6,8 27 14 40 22 NW 1014,9 20 0 0,0
14.01.2019 02:00:00 9,0 3,4 6,9 25 13 46 25 NW 1014,3 40 0 0,0
14.01.2019 01:00:00 9,2 3,4 7,2 23 12 53 28 NW 1013,8 20 0 0,0
14.01.2019 00:00:00 9,2 5,6 8,2 34 18 49 27 NNW 1013,4 20 0 0,2
13.01.2019 23:00:00 10,3 8,2 9,7 25 14 49 26 WNW 1012,5 15 0 0,0
13.01.2019 22:00:00 10,5 8,3 9,6 27 15 50 27 W 1012,1 17 0 0,0
13.01.2019 21:00:00 10,3 8,2 9,6 21 11 41 22 W 1012,0 18 0 0,0
13.01.2019 20:00:00 10,4 8,3 9,7 23 13 44 24 W 1012,1 16 0 0,0
13.01.2019 19:00:00 10,3 8,2 9,5 21 11 39 21 W 1011,9 18 0 0,0
13.01.2019 18:00:00 10,1 8,0 9,5 25 14 44 24 W 1011,9 14 0 0,0
13.01.2019 17:00:00 10,1 8,0 9,5 22 12 49 26 W 1012,3 14 0 0,0
13.01.2019 16:00:00 9,9 8,0 9,4 21 11 42 23 W 1012,1 13 0 0,0
13.01.2019 15:00:00 9,8 7,9 9,4 22 12 46 25 W 1012,3 12 0 0,0
13.01.2019 14:00:00 9,9 7,8 9,5 26 14 48 26 W 1013,1 16 0 0,0
13.01.2019 13:00:00 9,9 8,3 9,1 16 9 35 19 W 1013,9 13 0 0,4
13.01.2019 12:00:00 10,0 8,3 9,2 16 9 50 27 W 1014,6 9 0 0,2
13.01.2019 11:00:00 10,1 8,5 9,5 16 8 35 19 W 1015,4 12 0 0,0
13.01.2019 10:00:00 9,9 8,3 8,9 14 8 33 18 W 1015,4 13 0 0,0
13.01.2019 09:00:00 9,8 8,2 8,8 15 8 29 15 W 1015,8 15 0 0,0
13.01.2019 08:00:00 10,0 8,3 9,0 15 8 27 14 W 1015,8 15 0 0,0
13.01.2019 07:00:00 9,8 8,1 9,2 16 9 35 19 W 1016,1 14 0 0,0
13.01.2019 06:00:00 9,8 7,9 8,9 17 9 34 18 W 1016,7 15 0 0,0
13.01.2019 05:00:00 9,7 7,8 8,5 19 10 35 19 W 1017,4 16 0 0,0
13.01.2019 04:00:00 9,6 7,4 8,8 16 9 34 19 W 1017,7 16 0 0,0
13.01.2019 03:00:00 9,7 7,5 8,8 18 10 36 19 WNW 1018,0 18 0 0,0
13.01.2019 02:00:00 9,5 7,3 8,8 20 11 38 20 W 1018,2 17 0 0,0
13.01.2019 01:00:00 9,4 7,2 8,7 23 12 41 22 WNW 1018,9 19 0 0,0
13.01.2019 00:00:00 9,2 7,0 8,6 22 12 40 22 WNW 1019,3 18 0 0,0
12.01.2019 23:00:00 9,2 6,8 8,2 24 13 40 22 WNW 1019,7 18 0 0,0
12.01.2019 22:00:00 9,4 7,0 8,6 19 10 36 19 WNW 1019,8 18 0 0,0
12.01.2019 21:00:00 9,4 6,5 8,3 21 11 38 20 WNW 1020,1 49 0 0,0
12.01.2019 20:00:00 9,4 7,0 7,8 18 10 31 17 WNW 1020,2 39 0 0,0
12.01.2019 19:00:00 9,4 7,7 8,2 12 7 34 18 WNW 1020,3 19 0 0,0
12.01.2019 18:00:00 9,4 8,0 8,5 19 10 41 22 W 1020,4 17 0 0,0
12.01.2019 17:00:00 9,6 8,0 8,8 23 12 46 25 W 1021,0 17 0 0,0
12.01.2019 16:00:00 9,5 7,9 8,7 21 11 46 25 W 1021,2 18 0 0,2
12.01.2019 15:00:00 9,6 7,5 9,4 23 13 50 27 WNW 1021,5 19 0 0,0
12.01.2019 14:00:00 9,5 7,1 9,4 24 13 44 24 W 1022,0 45 0 0,0
12.01.2019 13:00:00 9,6 7,2 9,4 21 11 44 24 W 1023,1 38 0 0,0
12.01.2019 12:00:00 9,4 7,2 8,9 23 12 39 21 WNW 1024,0 43 0 0,0

tt = Température de l'air
td = dewpoint
tt 5cm = Température de l'air 5cm
ff = Vitesse du vent
fx = gusts
dd = Direction du vent
ppp = reduced air pressure
vv = visibility
sd = Ensoleillement
rr = Quantités de précipitations

stations d'obs. à proximité